Weather History for Tallahassee, FL

Change the Weather History Date:

Wednesday, December 26, 2012

  Actual Average Record
Temperature  
Mean Temperature 55 °F 52 °F  
Max Temperature 70 °F 64 °F 79 °F (1971)
Min Temperature 40 °F 40 °F 13 °F (1985)
Degree Days  
Heating Degree Days 10    
Month to date heating degree days 179  
Since 1 July heating degree days 437  
Cooling Degree Days 0    
Month to date cooling degree days 18  
Year to date cooling degree days 2976  
Growing Degree Days 1 (Base 50)    
Moisture  
Dew Point 48 °F    
Average Humidity 64    
Maximum Humidity 84    
Minimum Humidity 43    
Precipitation  
Precipitation 0.09 in 0.12 in 1.64 in (1940)
Month to date precipitation 2.75 3.29  
Year to date precipitation 58.79 58.62  
Sea Level Pressure  
Sea Level Pressure 29.81 in    
Wind  
Wind Speed 13 mph (West)    
Max Wind Speed 29 mph    
Max Gust Speed 39 mph    
Visibility 10 miles    
Events Rain , Thunderstorm    
T = Trace of Precipitation, MM = Missing Value Source: NWS Daily Summary

Daily Weather History Graph

Daily Weather History Graph

Search for Another Location

Airport:

Trip Planner

Search our weather history database for the weather conditions in past years. The results will help you decide how hot, cold, wet, or windy it might be!

Date:

Astronomy

Dec. 26, 2012 Rise Set
Actual Time 7:32 AM EST 5:44 PM EST
Civil Twilight 7:06 AM EST 6:10 PM EST
Nautical Twilight 6:36 AM EST 6:40 PM EST
Astronomical Twilight 6:06 AM EST 7:10 PM EST
Moon 4:35 PM EST (12/26) 5:57 AM EST (12/26)
Length of Visible Light 11h 04m
Length of Day
10h 11m
Waxing Gibbous, 97% of the Moon is Illuminated
Dec 26
Waxing Gibbous
Dec 28
Full
Jan 4
Last Quarter
Jan 11
New
Jan 18
First Quarter

Hourly Weather History & Observations

Time (EST) Temp. Windchill Dew Point Humidity Pressure Visibility Wind Dir Wind Speed Gust Speed Precip Events Conditions
12:53 AM 66.9 °F - 61.0 °F 81% 29.72 in 10.0 mi SSE 19.6 mph 28.8 mph N/A   Overcast
1:14 AM 68.0 °F - 62.6 °F 83% 29.72 in 10.0 mi South 16.1 mph 26.5 mph N/A   Overcast
1:53 AM 68.0 °F - 62.1 °F 81% 29.70 in 10.0 mi SSE 11.5 mph 21.9 mph N/A   Overcast
2:53 AM 70.0 °F - 64.0 °F 81% 29.70 in 10.0 mi South 19.6 mph 33.4 mph N/A   Overcast
3:53 AM 69.1 °F - 64.0 °F 84% 29.65 in 10.0 mi South 18.4 mph 39.1 mph N/A   Overcast
4:10 AM 69.8 °F - 64.4 °F 83% 29.63 in 10.0 mi SSE 25.3 mph 39.1 mph 0.00 in Rain Light Rain
4:29 AM 69.8 °F - 64.4 °F 83% 29.65 in 10.0 mi SSW 20.7 mph 34.5 mph 0.00 in Rain , Thunderstorm Light Thunderstorms and Rain
4:36 AM 69.8 °F - 62.6 °F 78% 29.68 in 8.0 mi West 25.3 mph 35.7 mph 0.00 in Rain , Thunderstorm Light Thunderstorms and Rain
4:53 AM 62.1 °F - 57.9 °F 86% 29.68 in 4.0 mi West 17.3 mph 31.1 mph 0.08 in Rain , Thunderstorm Heavy Thunderstorms and Rain
5:13 AM 60.8 °F - 57.2 °F 88% 29.69 in 10.0 mi West 12.7 mph - 0.01 in   Overcast
5:53 AM 60.1 °F - 55.9 °F 86% 29.70 in 10.0 mi SW 4.6 mph - 0.01 in   Overcast
6:53 AM 60.8 °F - 55.4 °F 82% 29.70 in 10.0 mi SW 4.6 mph - N/A   Mostly Cloudy
7:11 AM 60.8 °F - 55.4 °F 82% 29.71 in 10.0 mi SW 6.9 mph - N/A   Mostly Cloudy
7:53 AM 61.0 °F - 55.9 °F 83% 29.72 in 10.0 mi West 13.8 mph - N/A   Overcast
8:53 AM 61.0 °F - 54.0 °F 78% 29.74 in 10.0 mi West 11.5 mph - N/A   Scattered Clouds
9:45 AM 62.6 °F - 51.8 °F 68% 29.77 in 10.0 mi West 16.1 mph - N/A   Mostly Cloudy
9:53 AM 62.1 °F - 52.0 °F 70% 29.77 in 10.0 mi West 13.8 mph 25.3 mph N/A   Mostly Cloudy
10:53 AM 61.0 °F - 46.9 °F 60% 29.81 in 10.0 mi West 24.2 mph 39.1 mph N/A   Scattered Clouds
11:53 AM 60.1 °F - 42.1 °F 51% 29.82 in 10.0 mi WNW 18.4 mph 33.4 mph N/A   Scattered Clouds
12:53 PM 57.0 °F - 36.0 °F 45% 29.83 in 10.0 mi NW 20.7 mph 28.8 mph N/A   Partly Cloudy
1:53 PM 54.0 °F - 33.1 °F 45% 29.85 in 10.0 mi WNW 19.6 mph 32.2 mph N/A   Partly Cloudy
2:53 PM 54.0 °F - 33.1 °F 45% 29.86 in 10.0 mi WNW 17.3 mph 25.3 mph N/A   Partly Cloudy
3:53 PM 52.0 °F - 32.0 °F 47% 29.88 in 10.0 mi NW 15.0 mph 23.0 mph N/A   Partly Cloudy
4:53 PM 50.0 °F - 32.0 °F 50% 29.93 in 10.0 mi NW 13.8 mph - N/A   Partly Cloudy
5:53 PM 46.9 °F - 30.9 °F 54% 29.95 in 10.0 mi NW 11.5 mph - N/A   Clear
6:53 PM 45.0 °F 41.8 °F 32.0 °F 60% 29.98 in 10.0 mi NW 5.8 mph - N/A   Clear
7:53 PM 43.0 °F 38.8 °F 33.1 °F 68% 30.02 in 10.0 mi NW 6.9 mph - N/A   Clear
8:53 PM 42.1 °F 38.4 °F 32.0 °F 67% 30.04 in 10.0 mi NW 5.8 mph - N/A   Clear
9:53 PM 39.9 °F 35.8 °F 32.0 °F 73% 30.05 in 10.0 mi WNW 5.8 mph - N/A   Clear
10:53 PM 41.0 °F 35.2 °F 30.9 °F 67% 30.07 in 10.0 mi WNW 9.2 mph - N/A   Mostly Cloudy
11:53 PM 39.9 °F 35.8 °F 30.9 °F 70% 30.07 in 10.0 mi WNW 5.8 mph - N/A   Mostly Cloudy